#�ϑ�����,���ϕ���,���ϕ���,�ő啗��,�ő啗����������,�ő�u�ԕ���,�ő�u�ԕ�����������
#(�N����),(m/s)   ,(16����),(m/s)   ,(16����)        ,(m/s)       ,(16����)            
2016/2/13 0:01,1.4,3,1.4,2,1.8,3
2016/2/13 0:02,1.4,3,1.4,3,2.6,2
2016/2/13 0:03,1.3,3,1.4,3,2.5,2
2016/2/13 0:04,1.3,3,1.4,3,2.5,3
2016/2/13 0:05,1.4,3,1.4,3,2.6,3
2016/2/13 0:06,1.3,2,1.4,3,2.5,3
2016/2/13 0:07,1.4,3,1.4,3,2.9,3
2016/2/13 0:08,1.5,3,1.5,3,2.4,4
2016/2/13 0:09,1.6,3,1.6,3,2.5,4
2016/2/13 0:10,1.6,3,1.6,3,2.1,3
2016/2/13 0:11,1.6,3,1.6,3,1.6,3
2016/2/13 0:12,1.5,3,1.6,3,1.8,16
2016/2/13 0:13,1.6,3,1.6,3,1.9,3
2016/2/13 0:14,1.5,3,1.6,3,2.2,4
2016/2/13 0:15,1.5,3,1.5,3,2.4,4
2016/2/13 0:16,1.5,3,1.5,3,1.9,4
2016/2/13 0:17,1.4,3,1.5,3,2.1,3
2016/2/13 0:18,1.4,3,1.5,3,2.1,2
2016/2/13 0:19,1.4,3,1.4,3,2.1,3
2016/2/13 0:20,1.5,3,1.5,3,3.5,3
2016/2/13 0:21,1.6,3,1.6,3,2.9,3
2016/2/13 0:22,1.7,3,1.7,3,3.6,3
2016/2/13 0:23,1.9,3,1.9,3,4.2,3
2016/2/13 0:24,2,3,2,3,3.2,3
2016/2/13 0:25,2,3,2,3,3,3
2016/2/13 0:26,2.1,3,2.1,3,2.5,2
2016/2/13 0:27,2.1,3,2.1,3,2.4,3
2016/2/13 0:28,2.1,3,2.1,3,3.1,3
2016/2/13 0:29,2.2,3,2.2,3,3,3
2016/2/13 0:30,2.2,3,2.2,3,3.5,3
2016/2/13 0:31,2.2,3,2.2,3,3.3,3
2016/2/13 0:32,2.2,3,2.3,3,2.9,3
2016/2/13 0:33,2.2,3,2.2,3,3.6,3
2016/2/13 0:34,2.2,3,2.2,3,3.7,2
2016/2/13 0:35,2.1,3,2.2,3,3,3
2016/2/13 0:36,2.1,3,2.1,3,2.7,1
2016/2/13 0:37,2.1,3,2.1,3,2.7,3
2016/2/13 0:38,2.1,3,2.1,3,3.6,2
2016/2/13 0:39,2.1,3,2.1,3,3.6,2
2016/2/13 0:40,2,2,2,3,2.6,1
2016/2/13 0:41,2,2,2,3,3.9,3
2016/2/13 0:42,2.1,3,2.1,3,3.1,3
2016/2/13 0:43,2.2,3,2.2,3,3.8,3
2016/2/13 0:44,2.1,3,2.1,3,3,3
2016/2/13 0:45,2.1,3,2.1,3,3.2,2
2016/2/13 0:46,2.2,3,2.2,3,3,3
2016/2/13 0:47,2.2,3,2.2,3,2.7,3
2016/2/13 0:48,2.1,3,2.2,3,2.9,2
2016/2/13 0:49,2.1,3,2.1,3,2.5,2
2016/2/13 0:50,2.1,3,2.1,3,2.7,1
2016/2/13 0:51,2.1,3,2.1,3,3.9,3
2016/2/13 0:52,2,3,2.1,3,3.2,3
2016/2/13 0:53,1.9,2,2,3,4.2,3
2016/2/13 0:54,2,2,2,3,3.6,3
2016/2/13 0:55,2,2,2,3,2.9,3
2016/2/13 0:56,2,2,2,3,3.6,3
2016/2/13 0:57,2.1,2,2.1,3,3.6,3
2016/2/13 0:58,2.1,2,2.1,3,2.1,2
2016/2/13 0:59,2,2,2.1,3,2.6,3
2016/2/13 1:00,2,2,2,3,2.5,3
2016/2/13 1:01,1.9,2,2,3,2.9,1
2016/2/13 1:02,1.9,2,1.9,2,2.4,16
2016/2/13 1:03,1.8,2,1.9,2,2.6,3
2016/2/13 1:04,1.7,2,1.8,2,2.2,2
2016/2/13 1:05,1.7,2,1.7,2,3,3
2016/2/13 1:06,1.6,2,1.7,2,3,3
2016/2/13 1:07,1.6,2,1.6,2,4.2,1
2016/2/13 1:08,1.7,2,1.7,2,3.1,2
2016/2/13 1:09,1.8,2,1.8,2,4.1,2
2016/2/13 1:10,1.9,2,1.9,2,3.6,2
2016/2/13 1:11,1.9,2,1.9,2,2.6,3
2016/2/13 1:12,1.9,2,1.9,2,2.9,2
2016/2/13 1:13,2,2,2,2,3.7,3
2016/2/13 1:14,2,2,2,2,3.2,3
2016/2/13 1:15,2,2,2,2,2.9,3
2016/2/13 1:16,2,2,2,2,2.5,3
2016/2/13 1:17,1.9,2,2,2,2.4,3
2016/2/13 1:18,1.9,2,1.9,2,3.1,4
2016/2/13 1:19,1.8,2,1.9,2,2.1,3
2016/2/13 1:20,1.7,2,1.8,2,3.2,2
2016/2/13 1:21,1.7,2,1.7,2,2.4,2
2016/2/13 1:22,1.8,2,1.8,2,4.2,2
2016/2/13 1:23,1.8,2,1.8,2,4.4,2
2016/2/13 1:24,1.8,2,1.8,2,3,3
2016/2/13 1:25,1.8,2,1.8,2,2.7,3
2016/2/13 1:26,1.8,2,1.8,2,2.7,3
2016/2/13 1:27,1.9,2,1.9,2,3.9,3
2016/2/13 1:28,1.9,2,1.9,2,3.1,3
2016/2/13 1:29,1.9,2,1.9,2,2.2,3
2016/2/13 1:30,2,2,2,2,2.5,2
2016/2/13 1:31,2,3,2,2,2.2,3
2016/2/13 1:32,2,3,2,2,3.2,2
2016/2/13 1:33,1.8,3,1.9,2,2.5,2
2016/2/13 1:34,1.7,3,1.8,2,2.1,3
2016/2/13 1:35,1.7,3,1.7,2,2.4,3
2016/2/13 1:36,1.7,3,1.7,2,2.4,3
2016/2/13 1:37,1.6,3,1.7,2,2.1,3
2016/2/13 1:38,1.5,3,1.6,2,2,3
2016/2/13 1:39,1.5,3,1.5,2,2,2
2016/2/13 1:40,1.4,3,1.5,3,1.9,3
2016/2/13 1:41,1.5,3,1.5,3,3.5,3
2016/2/13 1:42,1.6,3,1.6,3,4.4,3
2016/2/13 1:43,1.7,3,1.7,3,4.4,4
2016/2/13 1:44,1.8,3,1.8,3,3.6,4
2016/2/13 1:45,1.9,3,1.9,3,3.1,4
2016/2/13 1:46,1.9,3,1.9,3,2.2,4
2016/2/13 1:47,1.9,3,1.9,3,1.9,3
2016/2/13 1:48,2,3,2,3,2.5,3
2016/2/13 1:49,1.9,3,2,3,1.8,3
2016/2/13 1:50,1.9,3,1.9,3,1.3,3
2016/2/13 1:51,1.9,3,1.9,3,2.7,4
2016/2/13 1:52,1.7,3,1.9,3,2.4,3
2016/2/13 1:53,1.6,3,1.7,3,2.1,3
2016/2/13 1:54,1.5,3,1.6,3,2.1,3
2016/2/13 1:55,1.4,3,1.5,3,2.4,3
2016/2/13 1:56,1.4,2,1.4,3,2.2,2
2016/2/13 1:57,1.4,2,1.4,3,2.7,2
2016/2/13 1:58,1.4,2,1.4,3,2.5,2
2016/2/13 1:59,1.5,2,1.5,3,2.7,3
2016/2/13 2:00,1.6,2,1.6,3,2.7,2
2016/2/13 2:01,1.6,2,1.6,3,3.5,3
2016/2/13 2:02,1.7,2,1.7,3,3.7,3
2016/2/13 2:03,1.8,2,1.8,2,3.3,4
2016/2/13 2:04,1.8,2,1.8,2,2.2,4
2016/2/13 2:05,1.9,3,1.9,3,3.2,3
2016/2/13 2:06,1.9,3,1.9,3,2.5,3
2016/2/13 2:07,1.9,3,1.9,3,2.2,1
2016/2/13 2:08,1.9,3,1.9,3,2.7,2
2016/2/13 2:09,1.9,3,1.9,3,3,3
2016/2/13 2:10,1.9,3,1.9,3,2.1,3
2016/2/13 2:11,1.9,3,1.9,3,2.9,4
2016/2/13 2:12,1.8,3,1.9,3,2.6,4
2016/2/13 2:13,1.8,3,1.8,3,2.7,3
2016/2/13 2:14,1.8,3,1.8,3,2.5,4
2016/2/13 2:15,1.7,3,1.8,3,2,3
2016/2/13 2:16,1.8,3,1.8,3,3.2,3
2016/2/13 2:17,1.8,3,1.9,3,2.9,3
2016/2/13 2:18,1.8,3,1.8,3,3.5,3
2016/2/13 2:19,1.8,3,1.8,3,3.1,3
2016/2/13 2:20,1.9,3,1.9,3,3.3,4
2016/2/13 2:21,1.8,3,1.9,3,2.7,3
2016/2/13 2:22,1.9,3,1.9,3,3.5,3
2016/2/13 2:23,2,3,2,3,3.9,3
2016/2/13 2:24,2.2,3,2.2,3,4.2,3
2016/2/13 2:25,2.3,3,2.3,3,3.8,4
2016/2/13 2:26,2.2,3,2.3,3,2.5,3
2016/2/13 2:27,2.3,3,2.3,3,3.2,3
2016/2/13 2:28,2.2,3,2.3,3,2.5,3
2016/2/13 2:29,2.2,3,2.2,3,2.9,4
2016/2/13 2:30,2.2,3,2.2,3,3.6,3
2016/2/13 2:31,2.2,3,2.2,3,2.5,4
2016/2/13 2:32,2.2,3,2.2,3,2.5,3
2016/2/13 2:33,2,3,2.1,3,2.7,4
2016/2/13 2:34,2,3,2,3,3.7,3
2016/2/13 2:35,1.9,3,2,3,3.6,3
2016/2/13 2:36,2,3,2,3,3.8,2
2016/2/13 2:37,2.1,3,2.1,3,4.1,3
2016/2/13 2:38,2.2,3,2.2,3,3.2,5
2016/2/13 2:39,2.2,3,2.2,3,3,3
2016/2/13 2:40,2.1,3,2.2,3,4.4,3
2016/2/13 2:41,2.3,3,2.3,3,5.1,3
2016/2/13 2:42,2.4,3,2.4,3,3.9,4
2016/2/13 2:43,2.5,3,2.5,3,3.2,4
2016/2/13 2:44,2.4,3,2.5,3,3,3
2016/2/13 2:45,2.4,3,2.4,3,3.7,3
2016/2/13 2:46,2.4,3,2.4,3,3.5,2
2016/2/13 2:47,2.3,3,2.4,3,3.6,3
2016/2/13 2:48,2.4,3,2.4,3,4.1,3
2016/2/13 2:49,2.5,3,2.5,3,3.6,3
2016/2/13 2:50,2.6,3,2.6,3,3.8,3
2016/2/13 2:51,2.4,3,2.6,3,3.3,3
2016/2/13 2:52,2.4,3,2.4,3,3.9,3
2016/2/13 2:53,2.4,3,2.4,3,3.8,3
2016/2/13 2:54,2.4,3,2.4,3,3.1,3
2016/2/13 2:55,2.3,3,2.4,3,2.9,3
2016/2/13 2:56,2.3,3,2.4,3,2.9,2
2016/2/13 2:57,2.3,3,2.3,3,3.2,3
2016/2/13 2:58,2.3,3,2.3,3,3.1,3
2016/2/13 2:59,2.4,3,2.4,3,4.2,3
2016/2/13 3:00,2.4,3,2.4,3,3.6,3
2016/2/13 3:01,2.4,3,2.4,3,3.6,2
2016/2/13 3:02,2.3,3,2.4,3,2.6,3
2016/2/13 3:03,2.2,3,2.3,3,2.5,3
2016/2/13 3:04,2.2,3,2.2,3,2.6,3
2016/2/13 3:05,2.2,3,2.2,3,2.7,3
2016/2/13 3:06,2.3,3,2.3,3,3.2,4
2016/2/13 3:07,2.3,3,2.3,3,2.9,3
2016/2/13 3:08,2.2,3,2.3,3,2.7,2
2016/2/13 3:09,2.1,3,2.2,3,3.1,4
2016/2/13 3:10,2,3,2.1,3,2.6,2
2016/2/13 3:11,1.9,2,2,3,3.1,2
2016/2/13 3:12,2,3,2,3,3.1,3
2016/2/13 3:13,2,2,2,3,2.4,2
2016/2/13 3:14,1.8,2,2,3,1.9,2
2016/2/13 3:15,1.7,2,1.8,3,2,3
2016/2/13 3:16,1.7,2,1.7,3,2.2,1
2016/2/13 3:17,1.6,2,1.6,3,3,1
2016/2/13 3:18,1.6,2,1.6,3,2.4,3
2016/2/13 3:19,1.5,2,1.5,3,1.8,3
2016/2/13 3:20,1.4,2,1.5,3,2.4,2
2016/2/13 3:21,1.3,2,1.4,3,2.5,1
2016/2/13 3:22,1.3,2,1.3,2,2.9,1
2016/2/13 3:23,1.3,2,1.3,2,2.7,2
2016/2/13 3:24,1.4,2,1.4,2,3.1,1
2016/2/13 3:25,1.5,2,1.5,2,3.3,3
2016/2/13 3:26,1.6,2,1.6,2,2.7,3
2016/2/13 3:27,1.6,2,1.6,2,2.9,16
2016/2/13 3:28,1.6,2,1.6,2,3,1
2016/2/13 3:29,1.8,2,1.8,2,3.6,3
2016/2/13 3:30,1.8,2,1.9,2,2.9,1
2016/2/13 3:31,1.9,2,1.9,2,2.5,1
2016/2/13 3:32,1.9,2,1.9,2,3,2
2016/2/13 3:33,1.9,2,2,2,2.7,1
2016/2/13 3:34,1.9,2,1.9,2,2,3
2016/2/13 3:35,1.7,2,1.9,2,1.4,1
2016/2/13 3:36,1.7,2,1.7,2,3,1
2016/2/13 3:37,1.7,2,1.7,2,3.5,1
2016/2/13 3:38,1.7,2,1.8,2,3.6,3
2016/2/13 3:39,1.6,2,1.7,2,2.4,1
2016/2/13 3:40,1.6,2,1.6,2,3,2
2016/2/13 3:41,1.6,2,1.6,2,3.3,1
2016/2/13 3:42,1.6,2,1.6,2,2.9,2
2016/2/13 3:43,1.6,2,1.6,2,3.5,16
2016/2/13 3:44,1.6,2,1.6,2,2.5,1
2016/2/13 3:45,1.7,2,1.7,2,2.5,2
2016/2/13 3:46,1.7,2,1.7,2,2.9,2
2016/2/13 3:47,1.7,2,1.7,2,2.1,2
2016/2/13 3:48,1.6,2,1.6,2,2.4,1
2016/2/13 3:49,1.7,2,1.7,2,2.7,2
2016/2/13 3:50,1.7,2,1.8,2,2.6,3
2016/2/13 3:51,1.7,2,1.7,2,3.1,3
2016/2/13 3:52,1.7,2,1.7,2,3,3
2016/2/13 3:53,1.6,2,1.7,2,2.7,3
2016/2/13 3:54,1.6,2,1.6,2,2.1,3
2016/2/13 3:55,1.7,2,1.7,2,4.3,4
2016/2/13 3:56,1.6,2,1.7,2,1.5,2
2016/2/13 3:57,1.6,2,1.6,2,2.4,1
2016/2/13 3:58,1.6,2,1.6,2,3,3
2016/2/13 3:59,1.5,2,1.6,2,2.7,3
2016/2/13 4:00,1.6,2,1.6,2,3.1,2
2016/2/13 4:01,1.6,2,1.6,2,2.6,16
2016/2/13 4:02,1.5,2,1.5,2,2.7,1
2016/2/13 4:03,1.6,2,1.6,2,3.1,3
2016/2/13 4:04,1.7,2,1.7,2,2.7,4
2016/2/13 4:05,1.8,2,1.8,2,4.2,3
2016/2/13 4:06,2,2,2,2,3.9,3
2016/2/13 4:07,2.1,2,2.1,2,3,3
2016/2/13 4:08,2.1,2,2.1,2,2.9,2
2016/2/13 4:09,2.1,2,2.1,2,3,2
2016/2/13 4:10,2.1,2,2.2,2,2.7,2
2016/2/13 4:11,2.2,2,2.2,2,3.3,3
2016/2/13 4:12,2.2,2,2.2,2,2.7,2
2016/2/13 4:13,2.1,2,2.2,2,2.7,3
2016/2/13 4:14,2.1,2,2.1,2,2.7,3
2016/2/13 4:15,1.9,2,2.1,2,2.2,2
2016/2/13 4:16,1.8,2,1.9,2,3.2,2
2016/2/13 4:17,1.8,2,1.8,2,2.7,3
2016/2/13 4:18,1.7,2,1.8,2,2,3
2016/2/13 4:19,1.7,2,1.7,2,2,4
2016/2/13 4:20,1.7,2,1.7,2,3,3
2016/2/13 4:21,1.6,2,1.7,2,2.7,3
2016/2/13 4:22,1.6,2,1.6,2,3,3
2016/2/13 4:23,1.6,2,1.7,2,3.6,2
2016/2/13 4:24,1.6,2,1.6,2,1.9,3
2016/2/13 4:25,1.6,2,1.6,2,2,1
2016/2/13 4:26,1.5,2,1.6,2,2,2
2016/2/13 4:27,1.5,2,1.5,2,3.1,2
2016/2/13 4:28,1.6,2,1.6,2,2.6,3
2016/2/13 4:29,1.6,2,1.6,2,2.7,1
2016/2/13 4:30,1.6,2,1.6,2,3.2,3
2016/2/13 4:31,1.6,2,1.6,2,2.6,2
2016/2/13 4:32,1.6,2,1.7,2,2.5,2
2016/2/13 4:33,1.6,2,1.6,2,3.2,3
2016/2/13 4:34,1.7,2,1.7,2,3.1,3
2016/2/13 4:35,1.8,2,1.8,2,2.5,3
2016/2/13 4:36,1.8,2,1.8,2,2.5,1
2016/2/13 4:37,1.8,2,1.8,2,2.6,2
2016/2/13 4:38,1.8,2,1.8,2,2.5,2
2016/2/13 4:39,1.7,2,1.8,2,1.6,2
2016/2/13 4:40,1.7,2,1.7,2,2.6,2
2016/2/13 4:41,1.6,2,1.7,2,2.5,3
2016/2/13 4:42,1.6,2,1.7,2,3,3
2016/2/13 4:43,1.7,2,1.7,2,4.1,1
2016/2/13 4:44,1.7,2,1.7,2,3.8,2
2016/2/13 4:45,1.7,2,1.7,2,3,2
2016/2/13 4:46,1.8,2,1.8,2,4.2,3
2016/2/13 4:47,2,2,2,2,4.4,3
2016/2/13 4:48,2.1,2,2.1,2,4.1,3
2016/2/13 4:49,2.1,2,2.1,2,3.7,2
2016/2/13 4:50,2.2,2,2.2,2,3.3,1
2016/2/13 4:51,2.3,2,2.3,2,3.3,2
2016/2/13 4:52,2.3,2,2.3,2,3.9,1
2016/2/13 4:53,2.3,2,2.4,2,4.4,2
2016/2/13 4:54,2.4,2,2.4,2,3.9,2
2016/2/13 4:55,2.6,2,2.6,2,5,2
2016/2/13 4:56,2.6,2,2.7,2,5.1,2
2016/2/13 4:57,2.5,2,2.6,2,4.1,4
2016/2/13 4:58,2.5,2,2.5,2,4.3,2
2016/2/13 4:59,2.5,2,2.5,2,3,2
2016/2/13 5:00,2.4,2,2.5,2,3.1,3
2016/2/13 5:01,2.5,2,2.5,2,3.6,3
2016/2/13 5:02,2.6,2,2.6,2,4.3,3
2016/2/13 5:03,2.6,2,2.6,2,3.9,3
2016/2/13 5:04,2.5,2,2.6,2,2.6,2
2016/2/13 5:05,2.4,2,2.5,2,4.1,3
2016/2/13 5:06,2.3,2,2.5,2,3.8,2
2016/2/13 5:07,2.3,2,2.3,2,3.1,1
2016/2/13 5:08,2.2,2,2.3,2,2.7,3
2016/2/13 5:09,2.2,2,2.2,2,3.2,2
2016/2/13 5:10,2.3,2,2.3,2,3.1,1
2016/2/13 5:11,2.3,2,2.3,2,3.7,3
2016/2/13 5:12,2.2,2,2.3,2,4.1,3
2016/2/13 5:13,2.2,2,2.2,2,4.2,2
2016/2/13 5:14,2.3,2,2.3,2,4.2,3
2016/2/13 5:15,2.2,2,2.3,2,3.9,4
2016/2/13 5:16,2.1,2,2.2,2,3.5,2
2016/2/13 5:17,2.2,2,2.2,2,3.3,3
2016/2/13 5:18,2.3,2,2.3,2,4.1,3
2016/2/13 5:19,2.3,2,2.3,2,3.6,4
2016/2/13 5:20,2.3,2,2.4,2,3.9,3
2016/2/13 5:21,2.3,2,2.3,2,4.1,3
2016/2/13 5:22,2.3,3,2.3,2,3.5,2
2016/2/13 5:23,2.3,3,2.3,2,4.5,3
2016/2/13 5:24,2.4,3,2.4,2,5.6,2
2016/2/13 5:25,2.4,3,2.5,3,4.4,3
2016/2/13 5:26,2.5,3,2.5,3,3.9,3
2016/2/13 5:27,2.5,2,2.5,3,5,3
2016/2/13 5:28,2.6,3,2.6,3,4.5,3
2016/2/13 5:29,2.6,3,2.6,3,3.7,3
2016/2/13 5:30,2.6,2,2.6,3,3.6,2
2016/2/13 5:31,2.4,2,2.6,3,2.5,2
2016/2/13 5:32,2.5,2,2.5,3,3.8,1
2016/2/13 5:33,2.4,2,2.5,3,3.3,3
2016/2/13 5:34,2.4,2,2.4,3,4.2,2
2016/2/13 5:35,2.4,2,2.4,3,3.9,2
2016/2/13 5:36,2.5,2,2.5,3,4.7,2
2016/2/13 5:37,2.5,2,2.5,3,4.4,3
2016/2/13 5:38,2.4,2,2.5,3,3.7,1
2016/2/13 5:39,2.5,2,2.5,3,4.4,2
2016/2/13 5:40,2.5,2,2.5,2,4.7,16
2016/2/13 5:41,2.5,2,2.5,2,3.9,2
2016/2/13 5:42,2.5,2,2.6,2,4.2,2
2016/2/13 5:43,2.6,2,2.6,2,5.1,2
2016/2/13 5:44,2.6,2,2.6,2,4.3,3
2016/2/13 5:45,2.6,2,2.6,2,3.7,3
2016/2/13 5:46,2.5,2,2.6,2,4.1,2
2016/2/13 5:47,2.5,2,2.5,2,4.5,3
2016/2/13 5:48,2.5,2,2.5,2,4.3,2
2016/2/13 5:49,2.5,2,2.5,2,4.1,2
2016/2/13 5:50,2.4,2,2.4,2,3.3,3
2016/2/13 5:51,2.3,2,2.4,2,3.1,3
2016/2/13 5:52,2.3,2,2.3,2,3.7,2
2016/2/13 5:53,2.4,2,2.4,2,5.2,2
2016/2/13 5:54,2.4,2,2.4,2,3.9,3
2016/2/13 5:55,2.4,2,2.4,2,3.1,2
2016/2/13 5:56,2.4,2,2.4,2,3,3
2016/2/13 5:57,2.3,2,2.4,2,3,3
2016/2/13 5:58,2.2,2,2.3,2,2.6,16
2016/2/13 5:59,2.3,2,2.3,2,4.1,2
2016/2/13 6:00,2.4,2,2.4,2,4.2,4
2016/2/13 6:01,2.5,2,2.5,2,3.7,1
2016/2/13 6:02,2.4,2,2.5,2,2.5,2
2016/2/13 6:03,2.3,2,2.4,2,2.6,2
2016/2/13 6:04,2.2,2,2.3,2,3.9,2
2016/2/13 6:05,2.3,2,2.3,2,4.1,3
2016/2/13 6:06,2.3,2,2.3,2,3.6,1
2016/2/13 6:07,2.4,2,2.4,2,4.3,3
2016/2/13 6:08,2.5,2,2.5,2,4.4,3
2016/2/13 6:09,2.5,2,2.5,2,5.4,1
2016/2/13 6:10,2.5,2,2.5,2,4.5,1
2016/2/13 6:11,2.5,2,2.5,2,5.1,1
2016/2/13 6:12,2.6,2,2.6,2,3.7,3
2016/2/13 6:13,2.7,2,2.7,2,3.3,2
2016/2/13 6:14,2.7,2,2.7,2,3.5,2
2016/2/13 6:15,2.5,2,2.6,2,2.5,1
2016/2/13 6:16,2.5,2,2.5,2,3.5,2
2016/2/13 6:17,2.4,2,2.5,2,4.3,4
2016/2/13 6:18,2.5,2,2.5,2,4.1,3
2016/2/13 6:19,2.5,2,2.5,2,4.5,3
2016/2/13 6:20,2.5,2,2.5,2,5,3
2016/2/13 6:21,2.6,3,2.6,2,4.8,4
2016/2/13 6:22,2.5,3,2.6,2,4.9,3
2016/2/13 6:23,2.4,3,2.5,2,3.7,3
2016/2/13 6:24,2.5,3,2.5,2,3.9,3
2016/2/13 6:25,2.6,3,2.6,3,4.2,3
2016/2/13 6:26,2.6,3,2.6,3,3.9,3
2016/2/13 6:27,2.6,3,2.6,3,3.3,3
2016/2/13 6:28,2.6,3,2.6,3,4.1,3
2016/2/13 6:29,2.6,3,2.6,3,3.9,3
2016/2/13 6:30,2.5,3,2.5,3,3.8,3
2016/2/13 6:31,2.4,3,2.5,3,3.2,3
2016/2/13 6:32,2.5,3,2.5,3,3.2,3
2016/2/13 6:33,2.5,3,2.5,3,2.7,4
2016/2/13 6:34,2.4,3,2.5,3,3.3,3
2016/2/13 6:35,2.4,3,2.5,3,3.5,3
2016/2/13 6:36,2.5,3,2.5,3,3.6,3
2016/2/13 6:37,2.5,3,2.5,3,3.1,3
2016/2/13 6:38,2.4,3,2.4,3,3,3
2016/2/13 6:39,2.3,3,2.4,3,3.6,2
2016/2/13 6:40,2.2,3,2.3,3,4.2,3
2016/2/13 6:41,2.2,3,2.2,3,3.7,3
2016/2/13 6:42,2.2,3,2.2,3,4.1,3
2016/2/13 6:43,2.4,3,2.4,3,4.4,4
2016/2/13 6:44,2.5,3,2.5,3,5.2,3
2016/2/13 6:45,2.5,3,2.5,3,4.1,4
2016/2/13 6:46,2.3,3,2.5,3,2.7,2
2016/2/13 6:47,2.3,3,2.4,3,3.9,2
2016/2/13 6:48,2.4,3,2.4,3,4.3,3
2016/2/13 6:49,2.5,3,2.5,3,3.9,3
2016/2/13 6:50,2.5,2,2.5,3,4.2,2
2016/2/13 6:51,2.5,2,2.6,2,3.9,3
2016/2/13 6:52,2.5,2,2.6,2,3,2
2016/2/13 6:53,2.4,2,2.5,2,3.3,3
2016/2/13 6:54,2.4,2,2.5,2,3.8,2
2016/2/13 6:55,2.5,2,2.5,2,3.9,3
2016/2/13 6:56,2.5,3,2.5,2,2.9,3
2016/2/13 6:57,2.5,3,2.5,2,2.4,2
2016/2/13 6:58,2.3,3,2.5,2,3.6,4
2016/2/13 6:59,2.2,3,2.3,2,3.3,4
2016/2/13 7:00,2.1,2,2.2,2,3.3,3
2016/2/13 7:01,2.1,3,2.1,2,3.5,2
2016/2/13 7:02,2.1,2,2.1,2,3.2,3
2016/2/13 7:03,2,2,2.1,2,2.5,3
2016/2/13 7:04,2,2,2,2,3.7,4
2016/2/13 7:05,2.2,3,2.2,2,6.3,3
2016/2/13 7:06,2.3,3,2.3,3,5.2,4
2016/2/13 7:07,2.7,3,2.7,3,5.7,4
2016/2/13 7:08,2.8,3,2.8,3,4.5,3
2016/2/13 7:09,2.9,3,2.9,3,5.1,2
2016/2/13 7:10,3,3,3,3,4.4,3
2016/2/13 7:11,3.1,3,3.1,3,4.2,3
2016/2/13 7:12,3.2,3,3.2,3,4.3,3
2016/2/13 7:13,3.3,3,3.3,3,5,3
2016/2/13 7:14,3.4,3,3.4,3,5.1,3
2016/2/13 7:15,3.2,3,3.4,3,4.7,3
2016/2/13 7:16,3.1,3,3.2,3,5.4,5
2016/2/13 7:17,2.8,3,3.1,3,3.1,2
2016/2/13 7:18,2.6,3,2.7,3,3.5,5
2016/2/13 7:19,2.6,3,2.6,3,4.3,4
2016/2/13 7:20,2.5,3,2.6,3,3.5,2
2016/2/13 7:21,2.4,3,2.5,3,3.2,3
2016/2/13 7:22,2.4,3,2.4,3,4.7,2
2016/2/13 7:23,2.3,3,2.3,3,4.9,3
2016/2/13 7:24,2.4,3,2.4,3,5.7,3
2016/2/13 7:25,2.4,3,2.4,3,6.3,3
2016/2/13 7:26,2.5,3,2.5,3,4.7,3
2016/2/13 7:27,2.6,3,2.6,3,3.1,3
2016/2/13 7:28,2.6,3,2.6,3,2.6,3
2016/2/13 7:29,2.5,3,2.6,3,3.8,4
2016/2/13 7:30,2.5,3,2.6,3,3.3,3
2016/2/13 7:31,2.5,3,2.5,3,4.2,3
2016/2/13 7:32,2.5,3,2.5,3,4.1,4
2016/2/13 7:33,2.5,3,2.5,3,3,4
2016/2/13 7:34,2.4,3,2.4,3,3.6,3
2016/2/13 7:35,2.3,3,2.3,3,3.1,3
2016/2/13 7:36,2.1,3,2.3,3,2.4,2
2016/2/13 7:37,2,3,2.1,3,2.6,1
2016/2/13 7:38,2.1,2,2.1,3,4.1,2
2016/2/13 7:39,2.2,3,2.2,3,4.8,3
2016/2/13 7:40,2.3,3,2.3,3,4.2,3
2016/2/13 7:41,2.3,3,2.4,3,3.3,3
2016/2/13 7:42,2.3,3,2.4,3,3.5,3
2016/2/13 7:43,2.3,2,2.3,3,3.3,2
2016/2/13 7:44,2.2,2,2.3,3,2.1,3
2016/2/13 7:45,2.1,2,2.2,3,3.1,4
2016/2/13 7:46,2.2,2,2.2,3,3,3
2016/2/13 7:47,2.3,3,2.3,3,3.3,3
2016/2/13 7:48,2.3,3,2.4,3,3.9,3
2016/2/13 7:49,2.2,3,2.3,3,3.6,3
2016/2/13 7:50,2.2,3,2.2,3,4.3,3
2016/2/13 7:51,2.3,3,2.3,3,4.2,4
2016/2/13 7:52,2.4,3,2.4,3,5,3
2016/2/13 7:53,2.5,3,2.5,3,4.2,3
2016/2/13 7:54,2.7,3,2.7,3,4.8,3
2016/2/13 7:55,2.8,3,2.8,3,4.8,3
2016/2/13 7:56,2.8,3,2.8,3,4.2,3
2016/2/13 7:57,2.9,3,2.9,3,3.8,3
2016/2/13 7:58,2.9,3,2.9,3,4.3,2
2016/2/13 7:59,3,3,3,3,4.9,4
2016/2/13 8:00,3,3,3.1,3,4.5,3
2016/2/13 8:01,2.9,3,3,3,3.1,3
2016/2/13 8:02,2.9,3,2.9,3,6.3,2
2016/2/13 8:03,3,3,3,3,5.4,3
2016/2/13 8:04,3,3,3.1,3,5.2,4
2016/2/13 8:05,3,3,3,3,4.7,4
2016/2/13 8:06,2.9,3,3,3,3.1,4
2016/2/13 8:07,2.9,3,2.9,3,4.2,3
2016/2/13 8:08,3,3,3,3,4.9,1
2016/2/13 8:09,2.9,3,3,3,4.2,3
2016/2/13 8:10,2.9,3,2.9,3,5.6,3
2016/2/13 8:11,3,3,3,3,4.7,4
2016/2/13 8:12,2.9,3,3,3,4.4,3
2016/2/13 8:13,2.7,3,2.9,3,3.1,3
2016/2/13 8:14,2.5,3,2.7,3,2.7,2
2016/2/13 8:15,2.5,3,2.5,3,3.9,3
2016/2/13 8:16,2.6,3,2.6,3,3.7,4
2016/2/13 8:17,2.5,3,2.6,3,3.8,3
2016/2/13 8:18,2.6,3,2.6,3,4.7,3
2016/2/13 8:19,2.6,3,2.6,3,3.9,3
2016/2/13 8:20,2.5,3,2.6,3,3.7,4
2016/2/13 8:21,2.4,3,2.5,3,3.3,2
2016/2/13 8:22,2.4,2,2.4,3,3.6,3
2016/2/13 8:23,2.5,3,2.5,3,3.9,2
2016/2/13 8:24,2.5,3,2.5,3,3.7,2
2016/2/13 8:25,2.5,3,2.6,3,3.8,4
2016/2/13 8:26,2.6,3,2.6,3,5.1,3
2016/2/13 8:27,2.6,3,2.7,3,4.2,2
2016/2/13 8:28,2.4,3,2.6,3,2.9,2
2016/2/13 8:29,2.4,3,2.4,3,3.3,3
2016/2/13 8:30,2.4,3,2.4,3,2.7,4
2016/2/13 8:31,2.4,3,2.4,3,2.7,3
2016/2/13 8:32,2.2,3,2.4,3,2.1,3
2016/2/13 8:33,2.2,3,2.3,3,4.8,3
2016/2/13 8:34,2.2,3,2.2,3,3,3
2016/2/13 8:35,2.2,2,2.2,3,4.4,3
2016/2/13 8:36,2.1,2,2.2,3,4.5,3
2016/2/13 8:37,2.1,2,2.1,3,3.3,4
2016/2/13 8:38,2.1,3,2.1,3,2.9,3
2016/2/13 8:39,2.1,3,2.1,3,3.9,3
2016/2/13 8:40,2.2,3,2.2,3,4.2,1
2016/2/13 8:41,2.3,3,2.3,3,4.4,3
2016/2/13 8:42,2.4,3,2.4,3,3,2
2016/2/13 8:43,2.5,3,2.5,3,4.8,2
2016/2/13 8:44,2.5,3,2.6,3,4.2,3
2016/2/13 8:45,2.5,3,2.6,3,3.3,4
2016/2/13 8:46,2.5,3,2.5,3,4.7,3
2016/2/13 8:47,2.6,3,2.6,3,3.5,4
2016/2/13 8:48,2.7,3,2.7,3,3.3,3
2016/2/13 8:49,2.6,3,2.7,3,3.1,3
2016/2/13 8:50,2.6,3,2.6,3,3.3,2
2016/2/13 8:51,2.7,3,2.7,3,4.4,3
2016/2/13 8:52,2.7,3,2.7,3,4.2,4
2016/2/13 8:53,2.5,3,2.7,3,2.1,3
2016/2/13 8:54,2.4,3,2.5,3,3.3,4
2016/2/13 8:55,2.4,3,2.4,3,2.9,3
2016/2/13 8:56,2.2,3,2.3,3,2.7,16
2016/2/13 8:57,2.2,3,2.2,3,4.5,3
2016/2/13 8:58,2.3,3,2.3,3,4.7,3
2016/2/13 8:59,2.3,3,2.3,3,4.1,4
2016/2/13 9:00,2.3,3,2.4,3,3.7,2
2016/2/13 9:01,2.2,3,2.3,3,3.2,4
2016/2/13 9:02,2.2,3,2.3,3,3.5,3
2016/2/13 9:03,2.4,3,2.4,3,3.5,4
2016/2/13 9:04,2.4,3,2.4,3,2.6,3
2016/2/13 9:05,2.4,3,2.4,3,3.1,1
2016/2/13 9:06,2.4,3,2.4,3,3,2
2016/2/13 9:07,2.5,3,2.5,3,4.7,3
2016/2/13 9:08,2.4,3,2.5,3,3.2,2
2016/2/13 9:09,2.4,3,2.4,3,3.6,3
2016/2/13 9:10,2.5,3,2.5,3,5.1,3
2016/2/13 9:11,2.5,3,2.5,3,5.4,4
2016/2/13 9:12,2.6,3,2.6,3,4.7,4
2016/2/13 9:13,2.5,3,2.6,3,2.7,2
2016/2/13 9:14,2.5,3,2.5,3,3.2,3
2016/2/13 9:15,2.4,3,2.5,3,2.7,2
2016/2/13 9:16,2.5,3,2.5,3,4.1,3
2016/2/13 9:17,2.4,3,2.5,3,2.9,2
2016/2/13 9:18,2.3,2,2.3,3,3.3,2
2016/2/13 9:19,2.3,2,2.3,3,4.1,2
2016/2/13 9:20,2.2,2,2.3,3,3.7,3
2016/2/13 9:21,2.2,2,2.3,3,3.7,4
2016/2/13 9:22,2,2,2.2,3,2.7,3
2016/2/13 9:23,2.1,2,2.1,3,3.9,3
2016/2/13 9:24,2.3,2,2.3,3,3.2,3
2016/2/13 9:25,2.4,2,2.4,3,3.1,3
2016/2/13 9:26,2.3,2,2.4,3,2.7,3
2016/2/13 9:27,2.4,2,2.4,2,4.5,3
2016/2/13 9:28,2.5,2,2.5,2,4.4,3
2016/2/13 9:29,2.5,3,2.5,2,3.9,3
2016/2/13 9:30,2.4,3,2.5,2,3.9,2
2016/2/13 9:31,2.3,3,2.4,2,4.4,3
2016/2/13 9:32,2.5,3,2.5,2,3.8,3
2016/2/13 9:33,2.5,3,2.5,2,4.1,3
2016/2/13 9:34,2.5,3,2.5,2,4.1,5
2016/2/13 9:35,2.5,3,2.5,2,3.2,4
2016/2/13 9:36,2.5,3,2.5,2,2.5,2
2016/2/13 9:37,2.4,3,2.5,2,3.3,3
2016/2/13 9:38,2.5,3,2.5,3,4.7,3
2016/2/13 9:39,2.6,3,2.6,3,4.1,4
2016/2/13 9:40,2.7,3,2.7,3,3.8,3
2016/2/13 9:41,2.8,3,2.8,3,3.7,3
2016/2/13 9:42,2.8,3,2.8,3,3,2
2016/2/13 9:43,2.6,3,2.8,3,2.1,3
2016/2/13 9:44,2.5,3,2.6,3,2.9,3
2016/2/13 9:45,2.4,3,2.5,3,2.7,1
2016/2/13 9:46,2.3,3,2.4,3,3.3,3
2016/2/13 9:47,2.4,3,2.4,3,3.6,4
2016/2/13 9:48,2.2,3,2.4,3,3.6,4
2016/2/13 9:49,2.2,3,2.2,3,4.4,3
2016/2/13 9:50,2.3,3,2.3,3,4.4,3
2016/2/13 9:51,2.3,3,2.3,3,4.5,3
2016/2/13 9:52,2.4,3,2.4,3,4.2,3
2016/2/13 9:53,2.5,3,2.5,3,3.9,2
2016/2/13 9:54,2.5,3,2.5,3,3.6,3
2016/2/13 9:55,2.6,3,2.6,3,3.8,3
2016/2/13 9:56,2.7,3,2.7,3,3.5,3
2016/2/13 9:57,2.6,3,2.7,3,3.2,3
2016/2/13 9:58,2.6,3,2.6,3,3.2,3
2016/2/13 9:59,2.6,2,2.6,3,4.4,3
2016/2/13 10:00,2.5,2,2.6,3,4.4,3
2016/2/13 10:01,2.3,2,2.4,3,2.7,3
2016/2/13 10:02,2.2,2,2.3,3,3.2,3
2016/2/13 10:03,2.1,2,2.2,3,3.3,2
2016/2/13 10:04,2.2,2,2.2,3,3.3,3
2016/2/13 10:05,2.1,2,2.2,3,3,2
2016/2/13 10:06,2,2,2.1,3,3.5,2
2016/2/13 10:07,2.1,2,2.1,3,3.7,2
2016/2/13 10:08,2.1,2,2.1,3,3.3,2
2016/2/13 10:09,2.1,2,2.1,2,4.1,2
2016/2/13 10:10,2.1,2,2.1,2,3.7,2
2016/2/13 10:11,2.1,2,2.1,2,3.8,1
2016/2/13 10:12,2.3,2,2.3,2,3.7,2
2016/2/13 10:13,2.2,2,2.3,2,3.8,1
2016/2/13 10:14,2.2,2,2.3,2,3.5,3
2016/2/13 10:15,2.3,2,2.3,2,3.9,3
2016/2/13 10:16,2.3,2,2.3,2,3.5,2
2016/2/13 10:17,2.5,2,2.5,2,4.8,3
2016/2/13 10:18,2.5,2,2.5,2,3.9,3
2016/2/13 10:19,2.4,2,2.5,2,2.5,2
2016/2/13 10:20,2.4,2,2.4,2,3.5,2
2016/2/13 10:21,2.2,2,2.3,2,2.5,16
2016/2/13 10:22,2.1,2,2.2,2,3,3
2016/2/13 10:23,2.1,2,2.1,2,3.3,3
2016/2/13 10:24,2.1,2,2.1,2,2.6,1
2016/2/13 10:25,2,2,2.1,2,3.8,2
2016/2/13 10:26,2,2,2.1,2,3.9,3
2016/2/13 10:27,2,2,2,2,4.2,2
2016/2/13 10:28,1.9,2,2,2,3.6,2
2016/2/13 10:29,2,2,2,2,3.2,1
2016/2/13 10:30,2,2,2,2,3.6,3
2016/2/13 10:31,2.1,2,2.1,2,3.1,2
2016/2/13 10:32,2.1,2,2.1,2,2.6,2
2016/2/13 10:33,2,2,2.1,2,2.7,3
2016/2/13 10:34,2,2,2,2,3.1,3
2016/2/13 10:35,2,2,2,2,3.2,3
2016/2/13 10:36,1.9,2,2,2,3.1,1
2016/2/13 10:37,1.8,2,1.9,2,2.9,2
2016/2/13 10:38,1.8,2,1.8,2,2.9,3
2016/2/13 10:39,1.8,2,1.8,2,3.3,2
2016/2/13 10:40,1.8,2,1.9,2,4.1,1
2016/2/13 10:41,1.8,2,1.8,2,3.6,2
2016/2/13 10:42,1.9,2,1.9,2,3.2,3
2016/2/13 10:43,2.1,2,2.1,2,4.5,2
2016/2/13 10:44,2.1,2,2.1,2,3.8,2
2016/2/13 10:45,2.1,2,2.1,2,3.1,2
2016/2/13 10:46,2.1,2,2.1,2,2.5,1
2016/2/13 10:47,2.1,2,2.1,2,3.9,3
2016/2/13 10:48,2.2,2,2.2,2,4.1,3
2016/2/13 10:49,2.3,2,2.3,2,3.6,2
2016/2/13 10:50,2.3,2,2.3,2,3.5,3
2016/2/13 10:51,2.2,2,2.3,2,3.1,1
2016/2/13 10:52,2.2,2,2.2,2,3.2,2
2016/2/13 10:53,2.1,2,2.2,2,4.8,3
2016/2/13 10:54,2.2,2,2.2,2,5.8,3
2016/2/13 10:55,2.3,2,2.3,2,5.2,3
2016/2/13 10:56,2.5,2,2.5,2,4.8,2
2016/2/13 10:57,2.5,2,2.5,2,3.8,2
2016/2/13 10:58,2.5,2,2.5,2,4.9,4
2016/2/13 10:59,2.5,2,2.6,2,4.7,3
2016/2/13 11:00,2.5,2,2.5,2,3.8,3
2016/2/13 11:01,2.6,2,2.6,2,3.7,3
2016/2/13 11:02,2.8,2,2.8,2,5.1,2
2016/2/13 11:03,2.9,2,2.9,2,4.8,2
2016/2/13 11:04,2.8,2,2.9,2,4.7,3
2016/2/13 11:05,2.8,3,2.9,2,4.7,4
2016/2/13 11:06,2.7,3,2.8,2,3.2,4
2016/2/13 11:07,2.7,3,2.8,2,3.2,3
2016/2/13 11:08,2.5,3,2.7,2,2.4,3
2016/2/13 11:09,2.4,3,2.5,2,2.4,3
2016/2/13 11:10,2.4,3,2.4,2,4.3,3
2016/2/13 11:11,2.2,3,2.4,2,2.2,3
2016/2/13 11:12,2.1,3,2.2,2,3,4
2016/2/13 11:13,2,3,2.1,2,3.3,3
2016/2/13 11:14,1.9,3,2,3,2.5,4
2016/2/13 11:15,1.8,3,1.9,3,2.1,3
2016/2/13 11:16,1.7,3,1.8,3,3,3
2016/2/13 11:17,1.8,3,1.8,3,3.7,2
2016/2/13 11:18,1.9,3,1.9,3,3.1,2
2016/2/13 11:19,1.9,3,1.9,3,3,3
2016/2/13 11:20,1.9,3,1.9,3,2.9,3
2016/2/13 11:21,2,3,2,3,2.9,3
2016/2/13 11:22,2,3,2.1,3,2.2,4
2016/2/13 11:23,1.9,3,2,3,2.4,4
2016/2/13 11:24,1.9,3,1.9,3,1.8,3
2016/2/13 11:25,1.9,3,1.9,3,3,3
2016/2/13 11:26,1.9,3,1.9,3,3.3,3
2016/2/13 11:27,1.9,3,1.9,3,2.7,3
2016/2/13 11:28,1.8,3,1.9,3,2.4,2
2016/2/13 11:29,1.8,3,1.9,3,2.5,2
2016/2/13 11:30,1.8,3,1.8,3,3.7,3
2016/2/13 11:31,1.7,3,1.8,3,4.3,3
2016/2/13 11:32,1.8,3,1.8,3,2.9,2
2016/2/13 11:33,1.8,2,1.8,3,3.3,3
2016/2/13 11:34,1.9,2,1.9,3,3.1,3
2016/2/13 11:35,2,2,2,2,3.8,3
2016/2/13 11:36,2.1,3,2.1,3,4.2,3
2016/2/13 11:37,2.2,3,2.2,3,4.8,3
2016/2/13 11:38,2.4,3,2.4,3,3.8,3
2016/2/13 11:39,2.4,3,2.4,3,3.5,3
2016/2/13 11:40,2.6,3,2.6,3,3.8,2
2016/2/13 11:41,2.5,3,2.5,3,3.3,3
2016/2/13 11:42,2.4,3,2.5,3,3,2
2016/2/13 11:43,2.3,3,2.4,3,2.7,1
2016/2/13 11:44,2.4,3,2.4,3,3.6,2
2016/2/13 11:45,2.4,2,2.4,3,4.1,2
2016/2/13 11:46,2.5,3,2.5,3,4.2,3
2016/2/13 11:47,2.4,2,2.5,3,3.7,3